DateTimeUTC,F1_A11,F1_S11,BsB_S11,BsG_S11,BsR_S11,BbsB_S11,BbsG_S11,BbsR_S11,BaB_A11,BaG_A11,BaR_A11,Tu_S11,T_S11,Uu_S11,U_S11,P_S11,T1_A11
2021-03-20T03:00:00Z,00040200,21000000,,,,,,,-000.02,-000.15,-000.18,16.2,23.9,,00.0,0649.7,30.9
2021-03-20T03:01:00Z,00040200,21000000,,,,,,,-000.41,0000.18,0000.01,16.2,24.0,,00.0,0649.7,30.9
2021-03-20T03:02:00Z,00040200,21000000,,,,,,,-000.11,-000.45,0000.06,16.2,24.0,,00.0,0649.7,30.9
2021-03-20T03:03:00Z,00040200,61000000,,,,,,,0000.33,0000.40,0000.04,16.2,24.0,,00.0,0649.7,30.9
2021-03-20T03:04:00Z,00040200,41000000,0000.68,0000.64,0000.20,0000.19,0000.34,-000.15,0000.04,0000.15,0000.34,16.6,23.9,,00.0,0650.6,30.9
2021-03-20T03:05:00Z,00040200,01000000,0001.41,0000.96,0000.28,0000.27,0000.21,-000.17,0000.39,0000.42,0000.00,16.7,23.9,,00.0,0650.7,30.9
2021-03-20T03:06:00Z,00040200,01000000,0000.93,0001.00,0000.36,0000.50,0000.22,0000.07,0000.47,0000.16,0000.36,16.8,23.9,,00.0,0650.6,30.9
2021-03-20T03:07:00Z,00040200,01000000,0000.64,0000.90,0000.35,0000.62,0000.09,0000.09,0000.37,0000.43,0000.39,16.8,23.9,,00.0,0650.6,30.9
2021-03-20T03:08:00Z,00040200,01000000,0001.15,0000.96,0000.38,0000.14,0000.46,0000.23,0000.79,0000.97,0000.31,16.9,23.9,,00.0,0650.7,30.9
2021-03-20T03:09:00Z,00040200,01000000,0000.33,0000.76,0000.29,0000.23,-000.03,0000.03,0000.11,0000.17,0000.34,16.9,23.9,,00.0,0650.7,30.9
2021-03-20T03:10:00Z,00040200,01000000,0000.48,0001.08,0000.25,0000.15,0000.38,0000.05,0000.25,0000.04,0000.31,17.0,23.9,,00.0,0650.7,30.9
2021-03-20T03:11:00Z,00040200,01000000,0000.86,0000.44,0000.55,0000.28,0000.22,0000.03,0000.61,0000.48,0000.31,17.0,24.0,,00.0,0650.6,30.9
2021-03-20T03:12:00Z,00040200,01000000,0001.07,0000.70,0000.27,0000.55,0000.18,0000.03,0000.15,0000.51,0000.29,17.0,24.0,,00.0,0650.6,30.9
2021-03-20T03:13:00Z,00040200,01000000,0000.31,0000.52,0000.29,0000.06,0000.31,0000.11,0000.07,0000.09,-000.16,17.0,23.9,,00.0,0650.6,30.9
2021-03-20T03:14:00Z,00040200,01000000,0000.77,0000.65,0000.43,-000.15,0000.40,-000.01,0000.80,0000.20,0000.07,16.9,23.9,,00.0,0650.6,30.9
2021-03-20T03:15:00Z,00040200,01000000,0000.87,0000.91,0000.37,0000.26,0000.19,0000.17,0000.22,0000.34,0000.54,16.8,23.9,,00.0,0650.6,30.9
2021-03-20T03:16:00Z,00040200,01000000,0001.10,0000.96,0000.66,0000.32,0000.28,0000.28,0000.48,0000.52,0000.17,16.7,23.8,,00.0,0650.6,30.9
2021-03-20T03:17:00Z,00040200,01000000,0001.16,0000.98,0000.40,-000.12,0000.31,0000.08,0000.15,0000.21,0000.18,16.6,23.8,,00.0,0650.6,30.9
2021-03-20T03:18:00Z,00040200,01000000,0001.49,0000.91,0000.29,0000.15,0000.03,0000.06,0000.26,0000.13,0000.50,16.5,23.8,,00.0,0650.6,30.8
2021-03-20T03:19:00Z,00040200,01000000,0001.37,0000.70,0000.31,0000.00,0000.06,-000.04,0000.41,0000.60,0000.19,16.5,23.7,,00.0,0650.6,30.8
2021-03-20T03:20:00Z,00040200,01000000,0001.05,0000.98,-000.10,-000.04,0000.20,0000.04,0000.40,-000.35,0000.00,16.4,23.7,,00.0,0650.6,30.8
2021-03-20T03:21:00Z,00040200,01000000,0001.16,0000.70,0000.42,0000.04,0000.18,-000.00,-000.03,0000.41,0000.08,16.4,23.6,,00.0,0650.6,30.8
2021-03-20T03:22:00Z,00040200,01000000,0000.61,0000.94,0000.21,-000.04,0000.06,0000.04,0000.67,0000.34,0000.32,16.4,23.6,,00.0,0650.5,30.8
2021-03-20T03:23:00Z,00040200,01000000,0001.00,0000.68,0000.40,0000.28,0000.22,-000.15,-000.12,0000.36,0000.33,16.4,23.6,,00.0,0650.5,30.8
2021-03-20T03:24:00Z,00040200,01000000,0000.32,0000.72,0000.47,0000.05,0000.17,-000.11,0000.96,0000.55,0000.36,16.4,23.6,,00.0,0650.5,30.8
2021-03-20T03:25:00Z,00040200,01000000,0000.68,0000.74,0000.34,-000.09,0000.25,-000.06,-000.17,-000.12,0000.07,16.5,23.6,,00.0,0650.5,30.8
2021-03-20T03:26:00Z,00040200,01000000,0000.75,0000.84,0000.17,0000.48,0000.33,0000.04,0000.40,0000.40,0000.27,16.5,23.6,,00.0,0650.5,30.9
2021-03-20T03:27:00Z,00040200,01000000,0000.70,0001.09,0000.37,0000.49,0000.26,-000.07,0000.34,0000.46,0000.36,16.6,23.6,,00.0,0650.5,30.9
2021-03-20T03:28:00Z,00040200,01000000,0000.61,0000.65,0000.26,0000.18,0000.23,0000.18,0000.44,0000.31,0000.24,16.6,23.7,,00.0,0650.5,30.9
2021-03-20T03:29:00Z,00040200,01000000,0001.41,0000.60,0000.08,0000.16,0000.30,-000.20,0000.12,-000.40,-000.00,16.6,23.7,,00.0,0650.5,30.9
2021-03-20T03:30:00Z,00040200,01000000,0000.55,0000.92,0000.17,0000.25,0000.08,-000.27,0000.54,0001.20,0000.31,16.7,23.7,,00.0,0650.5,30.9
2021-03-20T03:31:00Z,00040200,01000000,0000.29,0000.76,0000.35,0000.39,0000.27,0000.07,0000.19,0000.03,0000.27,16.7,23.7,,00.0,0650.5,30.9
2021-03-20T03:32:00Z,00040200,01000000,0001.55,0000.69,0000.16,0000.19,0000.16,0000.05,0000.07,0000.36,0000.22,16.8,23.7,,00.0,0650.5,30.9
2021-03-20T03:33:00Z,00040200,01000000,0000.90,0000.81,0000.25,0000.28,0000.39,-000.40,0000.66,0000.38,0000.20,16.8,23.8,,00.0,0650.5,30.9
2021-03-20T03:34:00Z,00040200,01000000,0000.09,0000.91,0000.28,0000.18,0000.28,0000.06,0000.04,0000.03,0000.21,16.9,23.8,,00.0,0650.5,30.9
2021-03-20T03:35:00Z,00040200,01000000,0001.29,0000.57,0000.21,0000.10,0000.02,-000.09,0000.44,0000.44,0000.40,16.9,23.8,,00.0,0650.5,30.9
2021-03-20T03:36:00Z,00040200,01000000,0000.67,0000.69,0000.23,-000.32,-000.03,0000.16,0000.45,0000.20,0000.36,17.0,23.8,,00.0,0650.5,30.9
2021-03-20T03:37:00Z,00040200,01000000,0000.90,0000.59,0000.24,0000.10,0000.37,0000.08,0000.28,0000.24,0000.10,17.0,23.9,,00.0,0650.5,30.9
2021-03-20T03:38:00Z,00040200,01000000,0000.64,0000.62,0000.33,0000.27,0000.13,0000.04,0000.26,0000.56,0000.41,17.0,23.9,,00.0,0650.5,30.9
2021-03-20T03:39:00Z,00040200,01000000,0000.55,0000.51,0000.33,-000.30,0000.22,0000.18,0000.10,0000.09,-000.09,17.0,23.9,,00.0,0650.5,30.9
2021-03-20T03:40:00Z,00040200,01000000,0000.75,0000.78,0000.39,0000.06,0000.26,0000.05,0000.39,0000.45,0000.18,16.9,23.8,,00.0,0650.5,30.9
2021-03-20T03:41:00Z,00040200,01000000,0000.85,0000.71,0000.31,0000.38,0000.33,-000.06,0000.21,-000.12,0000.05,16.8,23.8,,00.0,0650.5,30.9
2021-03-20T03:42:00Z,00040200,01000000,0000.51,0000.72,0000.25,0000.22,0000.03,0000.10,-000.06,-000.03,0000.02,16.7,23.8,,00.0,0650.5,30.8
2021-03-20T03:43:00Z,00040200,01000000,0001.37,0000.73,0000.39,0000.51,0000.12,0000.09,0000.24,0000.38,0000.09,16.7,23.7,,00.0,0650.5,30.8
2021-03-20T03:44:00Z,00040200,01000000,0000.56,0000.54,0000.29,0000.19,0000.14,-000.12,0000.41,0000.31,0000.41,16.6,23.7,,00.0,0650.5,30.8
2021-03-20T03:45:00Z,00040200,01000000,0001.19,0000.99,0000.16,0000.47,0000.14,-000.10,0000.18,0000.18,0000.55,16.5,23.7,,00.0,0650.5,30.8
2021-03-20T03:46:00Z,00040200,01000000,0000.68,0000.30,0000.21,0000.15,0000.08,0000.16,0000.26,0000.74,0000.15,16.4,23.6,,00.0,0650.4,30.8
2021-03-20T03:47:00Z,00040200,01000000,0001.09,0000.71,0000.25,0000.09,0000.24,0000.10,0000.35,0000.09,-000.03,16.3,23.6,,00.0,0650.4,30.8
2021-03-20T03:48:00Z,00040200,01000000,0001.47,0000.61,0000.02,0000.62,0000.24,-000.29,0000.60,-000.07,0000.05,16.2,23.5,,00.0,0650.4,30.8
2021-03-20T03:49:00Z,00040200,01000000,0000.59,0000.65,0000.34,0000.44,0000.30,0000.09,0000.02,0000.23,0000.17,16.2,23.5,,00.0,0650.4,30.8
2021-03-20T03:50:00Z,00040200,01000000,0000.54,0000.78,0000.33,0000.35,0000.30,0000.07,0000.11,0000.17,0000.20,16.1,23.4,,00.0,0650.4,30.8
2021-03-20T03:51:00Z,00040200,01000000,0000.80,0000.74,0000.29,0000.14,0000.27,0000.09,0000.47,0000.14,0000.63,16.0,23.4,,00.0,0650.4,30.8
2021-03-20T03:52:00Z,00040200,01000000,0001.43,0000.35,0000.45,0000.53,0000.27,0000.22,0000.24,0000.27,-000.20,16.0,23.3,,00.0,0650.4,30.7
2021-03-20T03:53:00Z,00040200,01000000,0000.88,0000.57,0000.13,0000.36,0000.08,0000.07,0000.69,0000.79,0000.39,16.0,23.3,,00.0,0650.4,30.8
2021-03-20T03:54:00Z,00040200,01000000,0000.72,0000.79,0000.42,0000.35,0000.24,-000.07,-000.21,-000.08,0000.48,16.1,23.3,,00.0,0650.4,30.8
2021-03-20T03:55:00Z,00040200,01000000,0000.79,0000.88,0000.39,0000.47,0000.12,-000.12,0000.82,0000.45,-000.00,16.1,23.3,,00.0,0650.3,30.8
2021-03-20T03:56:00Z,00040200,01000000,0000.51,0000.58,0000.19,0000.21,-000.26,-000.04,0000.22,0000.26,0000.24,16.2,23.3,,00.0,0650.3,30.8
2021-03-20T03:57:00Z,00040200,41000000,,,,,,,0000.88,0001.06,0000.84,16.2,23.3,,00.0,0650.4,30.8
2021-03-20T03:58:00Z,00040200,61000000,,,,,,,-000.70,-000.50,-000.54,15.9,23.6,,00.0,0649.4,30.8
2021-03-20T03:59:00Z,00040200,21000000,,,,,,,0000.23,-000.08,-000.06,16.0,23.7,,00.0,0649.3,30.9
